| time (UTC) | temp F | wind direction | speed MPH | gust MPH | rain 1hr in | rain 24hr in | rain mn in | humidity % | barometer mb |
| 20260505165810 | 80 | 309 | 0.0 | 8.0 | 0.00 | 0.00 | 0.00 | 45 | 1008.8 |
| 20260505165323 | 80 | 326 | 0.0 | 8.0 | 0.00 | 0.00 | 0.00 | 45 | 1008.7 |
| 20260505164808 | 79 | 231 | 0.0 | 0.0 | 0.00 | 0.00 | 0.00 | 44 | 1008.9 |
| 20260505164330 | 79 | 227 | 3.0 | 8.0 | 0.00 | 0.00 | 0.00 | 44 | 1008.9 |
| 20260505163817 | 79 | 227 | 0.0 | 4.0 | 0.00 | 0.00 | 0.00 | 46 | 1008.9 |
| 20260505163328 | 78 | 167 | 0.0 | 0.0 | 0.00 | 0.00 | 0.00 | 47 | 1008.9 |
| 20260505162819 | 78 | 229 | 0.0 | 8.0 | 0.00 | 0.00 | 0.00 | 47 | 1009.2 |
| 20260505162308 | 78 | 218 | 0.0 | 8.0 | 0.00 | 0.00 | 0.00 | 46 | 1009.3 |
| 20260505161816 | 78 | 288 | 0.0 | 4.0 | 0.00 | 0.00 | 0.00 | 48 | 1009.3 |
| 20260505153333 | 74 | 269 | 0.0 | 3.0 | 0.00 | 0.00 | 0.00 | 54 | 1009.9 |
| 20260505152819 | 74 | 265 | 0.0 | 10.0 | 0.00 | 0.00 | 0.00 | 52 | 1010.0 |
| 20260505152311 | 74 | 288 | 1.0 | 10.0 | 0.00 | 0.00 | 0.00 | 53 | 1010.0 |
| 20260505151312 | 74 | 205 | 0.0 | 3.0 | 0.00 | 0.00 | 0.00 | 54 | 1010.2 |
| 20260505150825 | 73 | 260 | 0.0 | 2.0 | 0.00 | 0.00 | 0.00 | 54 | 1010.1 |
| 20260505124813 | 63 | 292 | 0.0 | 2.0 | 0.00 | 0.00 | 0.00 | 74 | 1010.4 |
| 20260505124309 | 62 | 261 | 0.0 | 1.0 | 0.00 | 0.00 | 0.00 | 74 | 1010.2 |
| 20260505123819 | 62 | 292 | 0.0 | 0.0 | 0.00 | 0.00 | 0.00 | 76 | 1010.2 |
| 20260505123309 | 61 | 180 | 0.0 | 1.0 | 0.00 | 0.00 | 0.00 | 78 | 1010.1 |
| 20260505122823 | 60 | 200 | 0.0 | 1.0 | 0.00 | 0.00 | 0.00 | 79 | 1010.1 |
| 20260505122327 | 60 | 284 | 0.0 | 0.0 | 0.00 | 0.00 | 0.00 | 81 | 1010.1 |
| 20260505121834 | 59 | 284 | 0.0 | 0.0 | 0.00 | 0.00 | 0.00 | 81 | 1010.2 |
| 20260505121325 | 59 | 284 | 0.0 | 0.0 | 0.00 | 0.00 | 0.00 | 82 | 1010.3 |
| 20260505120811 | 58 | 284 | 0.0 | 0.0 | 0.00 | 0.00 | 0.00 | 83 | 1010.4 |
| 20260505120332 | 58 | 285 | 0.0 | 0.0 | 0.00 | 0.00 | 0.00 | 83 | 1010.6 |
| 20260505115819 | 58 | 302 | 0.0 | 0.0 | 0.00 | 0.00 | 0.00 | 84 | 1010.5 |
| 20260505114816 | 57 | 219 | 0.0 | 0.0 | 0.00 | 0.00 | 0.00 | 86 | 1010.5 |
| 20260505113829 | 56 | 211 | 0.0 | 0.0 | 0.00 | 0.00 | 0.00 | 87 | 1010.6 |
| 20260505113314 | 56 | 211 | 0.0 | 0.0 | 0.00 | 0.00 | 0.00 | 87 | 1010.6 |
| 20260505111809 | 55 | 210 | 0.0 | 2.0 | 0.00 | 0.00 | 0.00 | 88 | 1010.5 |
| 20260505111317 | 55 | 192 | 0.0 | 2.0 | 0.00 | 0.00 | 0.00 | 89 | 1010.4 |
| 20260505110825 | 55 | 173 | 0.0 | 0.0 | 0.00 | 0.00 | 0.00 | 89 | 1010.4 |
| 20260505110312 | 54 | 164 | 0.0 | 0.0 | 0.00 | 0.00 | 0.00 | 89 | 1010.3 |
| 20260505101816 | 50 | 231 | 0.0 | 0.0 | 0.00 | 0.00 | 0.00 | 87 | 1010.5 |
| 20260505101311 | 50 | 231 | 0.0 | 0.0 | 0.00 | 0.00 | 0.00 | 87 | 1010.4 |
| 20260505100829 | 50 | 231 | 0.0 | 0.0 | 0.00 | 0.00 | 0.00 | 86 | 1010.3 |
| 20260505095835 | 49 | 231 | 0.0 | 0.0 | 0.00 | 0.00 | 0.00 | 86 | 1010.1 |
| 20260505095312 | 50 | 231 | 0.0 | 0.0 | 0.00 | 0.00 | 0.00 | 85 | 1010.0 |
| 20260505094820 | 51 | 231 | 0.0 | 0.0 | 0.00 | 0.00 | 0.00 | 83 | 1010.0 |
| 20260505093823 | 52 | 230 | 0.0 | 0.0 | 0.00 | 0.00 | 0.00 | 81 | 1009.7 |
| 20260505093309 | 53 | 230 | 0.0 | 0.0 | 0.00 | 0.00 | 0.00 | 79 | 1009.7 |
| 20260505092816 | 54 | 230 | 0.0 | 0.0 | 0.00 | 0.00 | 0.00 | 78 | 1009.7 |
| 20260505092335 | 55 | 230 | 0.0 | 0.0 | 0.00 | 0.00 | 0.00 | 79 | 1009.7 |
| 20260505091814 | 55 | 230 | 0.0 | 0.0 | 0.00 | 0.00 | 0.00 | 80 | 1009.6 |
| 20260505090812 | 54 | 230 | 0.0 | 0.0 | 0.00 | 0.00 | 0.00 | 81 | 1009.6 |
| 20260505090319 | 53 | 230 | 0.0 | 0.0 | 0.00 | 0.00 | 0.00 | 81 | 1009.6 |
| 20260505085826 | 53 | 230 | 0.0 | 0.0 | 0.00 | 0.00 | 0.00 | 80 | 1009.6 |
| 20260505085313 | 54 | 230 | 0.0 | 0.0 | 0.00 | 0.00 | 0.00 | 79 | 1009.5 |
| 20260505084819 | 54 | 230 | 0.0 | 0.0 | 0.00 | 0.00 | 0.00 | 78 | 1009.4 |
| 20260505084309 | 55 | 230 | 0.0 | 0.0 | 0.00 | 0.00 | 0.00 | 76 | 1009.5 |
| 20260505083813 | 56 | 230 | 0.0 | 0.0 | 0.00 | 0.00 | 0.00 | 77 | 1009.5 |
| 20260505083328 | 56 | 230 | 0.0 | 0.0 | 0.00 | 0.00 | 0.00 | 76 | 1009.5 |
| 20260505082811 | 56 | 230 | 0.0 | 0.0 | 0.00 | 0.00 | 0.00 | 76 | 1009.5 |
| 20260505082327 | 56 | 230 | 0.0 | 0.0 | 0.00 | 0.00 | 0.00 | 76 | 1009.5 |
| 20260505081812 | 56 | 230 | 0.0 | 0.0 | 0.00 | 0.00 | 0.00 | 76 | 1009.5 |
| 20260505080811 | 56 | 230 | 0.0 | 0.0 | 0.00 | 0.00 | 0.00 | 77 | 1009.6 |
| 20260505080317 | 56 | 230 | 0.0 | 0.0 | 0.00 | 0.00 | 0.00 | 77 | 1009.5 |
| 20260505075814 | 56 | 230 | 0.0 | 0.0 | 0.00 | 0.00 | 0.00 | 77 | 1009.6 |
| 20260505075329 | 56 | 230 | 0.0 | 0.0 | 0.00 | 0.00 | 0.00 | 76 | 1009.5 |
| 20260505074809 | 56 | 230 | 0.0 | 0.0 | 0.00 | 0.00 | 0.00 | 76 | 1009.5 |
| 20260505074319 | 56 | 230 | 0.0 | 0.0 | 0.00 | 0.00 | 0.00 | 76 | 1009.5 |
| 20260505073336 | 56 | 230 | 0.0 | 0.0 | 0.00 | 0.00 | 0.00 | 76 | 1009.5 |
| 20260505072816 | 56 | 230 | 0.0 | 0.0 | 0.00 | 0.00 | 0.00 | 76 | 1009.5 |
| 20260505072319 | 56 | 230 | 0.0 | 0.0 | 0.00 | 0.00 | 0.00 | 76 | 1009.5 |
| 20260505071829 | 56 | 230 | 0.0 | 0.0 | 0.00 | 0.00 | 0.00 | 76 | 1009.4 |
| 20260505071316 | 55 | 230 | 0.0 | 0.0 | 0.00 | 0.00 | 0.00 | 76 | 1009.4 |
| 20260505070819 | 56 | 230 | 0.0 | 0.0 | 0.00 | 0.00 | 0.00 | 76 | 1009.4 |
| 20260505070332 | 56 | 230 | 0.0 | 0.0 | 0.00 | 0.00 | 0.00 | 75 | 1009.3 |
| 20260505065835 | 56 | 230 | 0.0 | 0.0 | 0.00 | 0.00 | 0.00 | 75 | 1009.4 |
| 20260505065312 | 56 | 230 | 0.0 | 0.0 | 0.00 | 0.00 | 0.00 | 74 | 1009.5 |
| 20260505064819 | 56 | 230 | 0.0 | 0.0 | 0.00 | 0.00 | 0.00 | 74 | 1009.4 |
| 20260505064313 | 56 | 230 | 0.0 | 0.0 | 0.00 | 0.00 | 0.00 | 74 | 1009.5 |
| 20260505062817 | 57 | 230 | 0.0 | 0.0 | 0.00 | 0.00 | 0.00 | 74 | 1009.5 |
| 20260505062326 | 57 | 230 | 0.0 | 0.0 | 0.00 | 0.00 | 0.00 | 73 | 1009.5 |
| 20260505061319 | 57 | 230 | 0.0 | 0.0 | 0.00 | 0.00 | 0.00 | 73 | 1009.7 |
| 20260505060823 | 57 | 230 | 0.0 | 0.0 | 0.00 | 0.00 | 0.00 | 73 | 1009.5 |
| 20260505060315 | 57 | 230 | 0.0 | 0.0 | 0.00 | 0.00 | 0.00 | 72 | 1009.6 |
| 20260505055822 | 57 | 230 | 0.0 | 0.0 | 0.00 | 0.00 | 0.00 | 72 | 1009.6 |
| 20260505055333 | 57 | 230 | 0.0 | 0.0 | 0.00 | 0.00 | 0.00 | 72 | 1009.6 |
| 20260505054824 | 57 | 230 | 0.0 | 0.0 | 0.00 | 0.00 | 0.00 | 72 | 1009.6 |
| 20260505053825 | 57 | 230 | 0.0 | 0.0 | 0.00 | 0.00 | 0.00 | 70 | 1009.7 |
| 20260505053320 | 57 | 230 | 0.0 | 0.0 | 0.00 | 0.00 | 0.00 | 69 | 1009.7 |
| 20260505052827 | 57 | 230 | 0.0 | 0.0 | 0.00 | 0.00 | 0.00 | 69 | 1009.8 |
| 20260505051814 | 58 | 230 | 0.0 | 0.0 | 0.00 | 0.00 | 0.00 | 67 | 1009.7 |
| 20260505051308 | 58 | 230 | 0.0 | 0.0 | 0.00 | 0.00 | 0.00 | 66 | 1009.7 |
| 20260505050319 | 59 | 230 | 0.0 | 0.0 | 0.00 | 0.00 | 0.00 | 65 | 1009.9 |
| 20260505041318 | 61 | 230 | 0.0 | 0.0 | 0.00 | 0.00 | 0.00 | 60 | 1010.0 |
| 20260505040825 | 61 | 226 | 0.0 | 1.0 | 0.00 | 0.00 | 0.00 | 60 | 1009.9 |
| 20260505040307 | 61 | 216 | 0.0 | 1.0 | 0.00 | 0.00 | 0.00 | 59 | 1009.9 |
| 20260505035323 | 61 | 227 | 0.0 | 1.0 | 0.00 | 0.00 | 0.00 | 58 | 1009.9 |
| 20260505033819 | 61 | 197 | 0.0 | 2.0 | 0.00 | 0.00 | 0.00 | 57 | 1009.9 |
| 20260505033329 | 62 | 197 | 0.0 | 2.0 | 0.00 | 0.00 | 0.00 | 57 | 1009.9 |
| 20260505032829 | 62 | 224 | 0.0 | 1.0 | 0.00 | 0.00 | 0.00 | 56 | 1009.9 |
| 20260505031310 | 62 | 227 | 0.0 | 0.0 | 0.00 | 0.00 | 0.00 | 54 | 1010.0 |
| 20260505030327 | 63 | 209 | 0.0 | 0.0 | 0.00 | 0.00 | 0.00 | 53 | 1009.9 |
| 20260505025816 | 63 | 213 | 0.0 | 0.0 | 0.00 | 0.00 | 0.00 | 53 | 1009.9 |
| 20260505025324 | 63 | 226 | 0.0 | 0.0 | 0.00 | 0.00 | 0.00 | 52 | 1009.9 |
| 20260505024815 | 63 | 234 | 0.0 | 2.0 | 0.00 | 0.00 | 0.00 | 52 | 1010.0 |
| 20260505024332 | 63 | 235 | 0.0 | 3.0 | 0.00 | 0.00 | 0.00 | 51 | 1010.0 |
| 20260505023819 | 63 | 188 | 0.0 | 2.0 | 0.00 | 0.00 | 0.00 | 50 | 1010.0 |
| 20260505023327 | 63 | 196 | 0.0 | 2.0 | 0.00 | 0.00 | 0.00 | 50 | 1010.0 |
| 20260505022830 | 63 | 196 | 0.0 | 2.0 | 0.00 | 0.00 | 0.00 | 49 | 1010.1 |
| 20260505021832 | 64 | 212 | 0.0 | 1.0 | 0.00 | 0.00 | 0.00 | 48 | 1010.1 |
| 20260505021311 | 64 | 212 | 0.0 | 0.0 | 0.00 | 0.00 | 0.00 | 48 | 1010.1 |
| 20260505020319 | 64 | 204 | 0.0 | 3.0 | 0.00 | 0.00 | 0.00 | 47 | 1010.1 |
| 20260505015327 | 65 | 200 | 0.0 | 2.0 | 0.00 | 0.00 | 0.00 | 46 | 1010.1 |
| 20260505014326 | 65 | 202 | 0.0 | 2.0 | 0.00 | 0.00 | 0.00 | 46 | 1009.9 |
| 20260505013829 | 65 | 218 | 0.0 | 2.0 | 0.00 | 0.00 | 0.00 | 46 | 1009.8 |
| 20260505013312 | 65 | 218 | 0.0 | 2.0 | 0.00 | 0.00 | 0.00 | 46 | 1009.8 |
| 20260505012818 | 65 | 232 | 0.0 | 0.0 | 0.00 | 0.00 | 0.00 | 45 | 1009.8 |
| 20260505012309 | 65 | 232 | 0.0 | 0.0 | 0.00 | 0.00 | 0.00 | 45 | 1009.8 |
| 20260505011819 | 66 | 232 | 0.0 | 0.0 | 0.00 | 0.00 | 0.00 | 45 | 1009.7 |
| 20260505011333 | 66 | 232 | 0.0 | 0.0 | 0.00 | 0.00 | 0.00 | 45 | 1009.6 |
| 20260505010817 | 66 | 232 | 0.0 | 0.0 | 0.00 | 0.00 | 0.00 | 45 | 1009.5 |
| 20260505005813 | 66 | 232 | 0.0 | 0.0 | 0.00 | 0.00 | 0.00 | 44 | 1009.4 |
| 20260505005323 | 67 | 232 | 0.0 | 0.0 | 0.00 | 0.00 | 0.00 | 43 | 1009.4 |
| 20260505004807 | 67 | 232 | 0.0 | 0.0 | 0.00 | 0.00 | 0.00 | 43 | 1009.3 |
| 20260505004323 | 67 | 232 | 0.0 | 0.0 | 0.00 | 0.00 | 0.00 | 43 | 1009.2 |
| 20260505003835 | 67 | 232 | 0.0 | 0.0 | 0.00 | 0.00 | 0.00 | 42 | 1009.1 |
| 20260505002811 | 68 | 232 | 0.0 | 0.0 | 0.00 | 0.00 | 0.00 | 42 | 1009.2 |
| 20260505002316 | 68 | 232 | 0.0 | 4.0 | 0.00 | 0.00 | 0.00 | 41 | 1009.1 |
| 20260505001823 | 68 | 232 | 0.0 | 4.0 | 0.00 | 0.00 | 0.00 | 41 | 1009.1 |
| 20260505001320 | 69 | 209 | 0.0 | 2.0 | 0.00 | 0.00 | 0.00 | 40 | 1009.0 |
| 20260505000827 | 69 | 269 | 1.0 | 2.0 | 0.00 | 0.00 | 0.00 | 40 | 1009.0 |
| 20260505000334 | 69 | 234 | 0.0 | 0.0 | 0.00 | 0.00 | 0.00 | 40 | 1008.9 |
| 20260504235813 | 69 | 213 | 0.0 | 1.0 | 0.00 | 0.00 | 0.00 | 40 | 1008.8 |
| 20260504235330 | 69 | 270 | 0.0 | 2.0 | 0.00 | 0.00 | 0.00 | 40 | 1008.7 |
| 20260504233817 | 70 | 248 | 0.0 | 5.0 | 0.00 | 0.00 | 0.00 | 38 | 1008.5 |
| 20260504233308 | 71 | 232 | 0.0 | 5.0 | 0.00 | 0.00 | 0.00 | 38 | 1008.5 |
| 20260504232822 | 71 | 203 | 0.0 | 0.0 | 0.00 | 0.00 | 0.00 | 38 | 1008.4 |
| 20260504231831 | 71 | 278 | 0.0 | 4.0 | 0.00 | 0.00 | 0.00 | 38 | 1008.3 |
| 20260504231320 | 72 | 243 | 0.0 | 4.0 | 0.00 | 0.00 | 0.00 | 37 | 1008.2 |
| 20260504230830 | 72 | 343 | 0.0 | 5.0 | 0.00 | 0.00 | 0.00 | 38 | 1008.2 |
| 20260504225827 | 72 | 335 | 4.0 | 9.0 | 0.00 | 0.00 | 0.00 | 36 | 1008.0 |
| 20260504224825 | 73 | 213 | 0.0 | 0.0 | 0.00 | 0.00 | 0.00 | 36 | 1008.0 |
| 20260504223814 | 73 | 231 | 1.0 | 5.0 | 0.00 | 0.00 | 0.00 | 35 | 1008.0 |
| 20260504223308 | 73 | 338 | 0.0 | 4.0 | 0.00 | 0.00 | 0.00 | 36 | 1008.2 |
| 20260504222324 | 73 | 296 | 1.0 | 10.0 | 0.00 | 0.00 | 0.00 | 35 | 1008.1 |
| 20260504221808 | 73 | 245 | 1.0 | 10.0 | 0.00 | 0.00 | 0.00 | 35 | 1008.2 |
| 20260504221320 | 74 | 251 | 0.0 | 10.0 | 0.00 | 0.00 | 0.00 | 36 | 1008.2 |
| 20260504220834 | 73 | 221 | 1.0 | 10.0 | 0.00 | 0.00 | 0.00 | 35 | 1008.2 |
| 20260504220320 | 74 | 273 | 1.0 | 6.0 | 0.00 | 0.00 | 0.00 | 35 | 1008.2 |
| 20260504215322 | 74 | 196 | 1.0 | 4.0 | 0.00 | 0.00 | 0.00 | 35 | 1008.4 |
| 20260504214322 | 74 | 313 | 1.0 | 7.0 | 0.00 | 0.00 | 0.00 | 34 | 1008.4 |
| 20260504213320 | 73 | 313 | 1.0 | 5.0 | 0.00 | 0.00 | 0.00 | 35 | 1008.6 |
| 20260504212808 | 73 | 302 | 0.0 | 9.0 | 0.00 | 0.00 | 0.00 | 36 | 1008.7 |
| 20260504212318 | 73 | 301 | 0.0 | 13.0 | 0.00 | 0.00 | 0.00 | 36 | 1008.7 |
| 20260504211813 | 73 | 284 | 0.0 | 6.0 | 0.00 | 0.00 | 0.00 | 35 | 1008.7 |
| 20260504211325 | 73 | 342 | 1.0 | 7.0 | 0.00 | 0.00 | 0.00 | 36 | 1008.7 |
| 20260504210837 | 72 | 346 | 0.0 | 8.0 | 0.00 | 0.00 | 0.00 | 35 | 1008.7 |
| 20260504210319 | 72 | 304 | 0.0 | 12.0 | 0.00 | 0.00 | 0.00 | 34 | 1008.7 |
| 20260504205312 | 74 | 248 | 2.0 | 9.0 | 0.00 | 0.00 | 0.00 | 34 | 1008.5 |
| 20260504204813 | 74 | 344 | 2.0 | 4.0 | 0.00 | 0.00 | 0.00 | 34 | 1008.5 |
| 20260504204321 | 74 | 298 | 2.0 | 12.0 | 0.00 | 0.00 | 0.00 | 34 | 1008.5 |
| 20260504203828 | 73 | 243 | 0.0 | 4.0 | 0.00 | 0.00 | 0.00 | 33 | 1008.5 |
| 20260504203317 | 74 | 32 | 0.0 | 11.0 | 0.00 | 0.00 | 0.00 | 34 | 1008.5 |
| 20260504202819 | 73 | 302 | 1.0 | 11.0 | 0.00 | 0.00 | 0.00 | 34 | 1008.6 |
| 20260504202330 | 74 | 290 | 1.0 | 8.0 | 0.00 | 0.00 | 0.00 | 35 | 1008.7 |
| 20260504201815 | 73 | 286 | 2.0 | 8.0 | 0.00 | 0.00 | 0.00 | 34 | 1008.7 |
| 20260504200315 | 73 | 238 | 5.0 | 9.0 | 0.00 | 0.00 | 0.00 | 33 | 1008.7 |
| 20260504195829 | 74 | 211 | 0.0 | 7.0 | 0.00 | 0.00 | 0.00 | 35 | 1008.8 |
| 20260504194825 | 73 | 300 | 1.0 | 11.0 | 0.00 | 0.00 | 0.00 | 34 | 1009.0 |
| 20260504194317 | 73 | 251 | 0.0 | 6.0 | 0.00 | 0.00 | 0.00 | 33 | 1008.9 |
| 20260504193332 | 73 | 286 | 0.0 | 11.0 | 0.00 | 0.00 | 0.00 | 34 | 1009.0 |
| 20260504192311 | 73 | 318 | 0.0 | 9.0 | 0.00 | 0.00 | 0.00 | 35 | 1009.0 |
| 20260504191819 | 73 | 295 | 3.0 | 14.0 | 0.00 | 0.00 | 0.00 | 34 | 1009.2 |
| 20260504191309 | 72 | 295 | 2.0 | 14.0 | 0.00 | 0.00 | 0.00 | 34 | 1009.2 |
| 20260504185823 | 72 | 200 | 1.0 | 7.0 | 0.00 | 0.00 | 0.00 | 33 | 1009.5 |
| 20260504185325 | 72 | 254 | 2.0 | 7.0 | 0.00 | 0.00 | 0.00 | 35 | 1009.5 |
| 20260504184316 | 72 | 288 | 0.0 | 7.0 | 0.00 | 0.00 | 0.00 | 36 | 1009.6 |
| 20260504183829 | 71 | 190 | 1.0 | 9.0 | 0.00 | 0.00 | 0.00 | 38 | 1009.5 |
| 20260504182825 | 70 | 317 | 2.0 | 11.0 | 0.00 | 0.00 | 0.00 | 37 | 1009.7 |
| 20260504182333 | 71 | 298 | 1.0 | 9.0 | 0.00 | 0.00 | 0.00 | 34 | 1009.8 |
| 20260504181833 | 71 | 341 | 2.0 | 7.0 | 0.00 | 0.00 | 0.00 | 37 | 1009.9 |
| 20260504181319 | 71 | 252 | 1.0 | 8.0 | 0.00 | 0.00 | 0.00 | 38 | 1010.1 |
| 20260504180830 | 70 | 269 | 0.0 | 9.0 | 0.00 | 0.00 | 0.00 | 36 | 1010.1 |
| 20260504180313 | 70 | 290 | 0.0 | 12.0 | 0.00 | 0.00 | 0.00 | 37 | 1010.2 |
| 20260504175827 | 70 | 261 | 4.0 | 19.0 | 0.00 | 0.00 | 0.00 | 37 | 1010.3 |
| 20260504175311 | 70 | 271 | 1.0 | 19.0 | 0.00 | 0.00 | 0.00 | 37 | 1010.3 |
| 20260504174333 | 69 | 261 | 0.0 | 9.0 | 0.00 | 0.00 | 0.00 | 37 | 1010.4 |
| 20260504173330 | 69 | 271 | 1.0 | 17.0 | 0.00 | 0.00 | 0.00 | 38 | 1010.5 |
| 20260504172813 | 69 | 265 | 1.0 | 12.0 | 0.00 | 0.00 | 0.00 | 38 | 1010.6 |
| 20260504172323 | 68 | 307 | 0.0 | 12.0 | 0.00 | 0.00 | 0.00 | 39 | 1010.6 |
| 20260504171811 | 68 | 264 | 2.0 | 7.0 | 0.00 | 0.00 | 0.00 | 40 | 1010.7 |
| 20260504171327 | 68 | 223 | 1.0 | 11.0 | 0.00 | 0.00 | 0.00 | 38 | 1010.8 |
| 20260504170821 | 68 | 212 | 2.0 | 11.0 | 0.00 | 0.00 | 0.00 | 39 | 1010.8 |
| 20260504170329 | 68 | 276 | 1.0 | 10.0 | 0.00 | 0.00 | 0.00 | 40 | 1011.0 |